Погода в Наумовом

Россия / Псковская область     56°16′26″N   31°19′25″E
темп.,
°C
ветер,
м/с
пор.,
м/с
влажн.,
%
обл.,
%
осадки,
мм/ч
давл.,
гПа
погр.,
м
24 мая, вт
вт2400:00+6ссз29940 0.0 1011191
03:00+3сз248685 0.0 101285
06:00+7зсз287664 0.0 1011232
09:00+12ссз595948 0.0 1011794
12:00+15ссз5114476 0.0 10112203
15:00+17ссз6113721 0.0 10102474
18:00+16с4114428 0.0 10112357
21:00+9ссв265932 0.0 101398
25 мая, ср
ср2500:00+5ссв245963 0.0 101565
03:00+4в118289 0.0 101610
06:00+5св008149 0.0 101741
09:00+11с23553 0.0 1016684
12:00+15сз34370 0.0 10161351
15:00+18сз35355 0.0 10141688
18:00+18ссз244217 0.0 10131300
21:00+12в116566 0.0 101310
26 мая, чт
чт2600:00+12ююв256394 0.0 101288
03:00+9ю238799 0.0 101151
06:00+11ююв2481100 0.0 1008126
09:00+14юз3566100 0.0 1007537
12:00+11з3894100 0.6 1007548
15:00+11з379399 2.5 1007658
18:00+15з386948 0.8 10041325
21:00+11з31088100 1.5 1003438
27 мая, пт
пт2700:00+9зюз3109799 0.6 1002351
03:00+9з51197100 5.0 1002720
06:00+8з5129563 0.1 1002692
09:00+10з5108472 0.2 1003782
12:00+14зюз5853100 0.4 10021824
15:00+16зюз61037100 0.5 10002680
18:00+13юз5963100 0.1 9991232
21:00+9юз41088100 0.3 999687
28 мая, сб
сб2800:00+8зюз4129233 1.0 998691
03:00+6зюз4119589 1.1 999770
06:00+6юз4992100 0.0 999815
09:00+7юз41090100 0.1 999815
12:00+9юз5979100 0.7 10001426
15:00+10зюз598190 2.3 10011307
18:00+10зюз488440 1.6 10011154
21:00+7юз398925 0.9 1001329